Location: San Antonio
(29.4240°N, 98.4930°W)
Time: 22:22:44
(UTC-05:00)

Hubble Space Telescope - Pass Details

Date: 26 June 2024
Orbit: 510 x 513 km, 28.5° (Epoch: 18 July)

Event Time Altitude Azimuth Distance (km) Brightness Sun altitude
Exits shadow 04:35:11 16° 136° (SE) 1,378 2.8 -22.0°
Drops below altitude 10° 04:36:51 10° 113° (ESE) 1,717 3.6 -21.8°
Sets 04:39:38 0° 93° (E) 2,602 4.9 -21.4°
